Tracking 22925 objects as of 6-May-2021
HD Live streaming from Space Station
objects crossing your sky now

THORAD AGENA D DEB

Track THORAD AGENA D DEB now!
10-day predictions


NORAD ID: 4948
Int'l Code: 1970-025GJ
Perigee: 930.8 km
Apogee: 1,245.6 km
Inclination: 99.5 °
Period: 106.9 minutes
Semi major axis: 7459 km
RCS: 0.0194 m2 (small)
Launch date: April 8, 1970
Source: United States (US)
Launch site: AIR FORCE WESTERN TEST RANGE (AFWTR)

Note: This is SATELLITE DEBRIS
aabbcc
Your satellite tracking list
Your tracking list is empty




NASA's NSSDC Master Catalog

Two Line Element Set (TLE):
1 04948U 70025GJ  21125.30642696  .00001054  00000-0  15602-2 0  9992
2 04948  99.5474  36.6720 0210908 134.8033 340.9139 13.47604596486294
Source of the keplerian elements: AFSPC